Regional Weather Roundup
Issued by NWS Sterling, VA

Home | Current Version | Previous Version | Text Only | Print | Product List | Glossary On
Versions: 1 2 3 4 5 6 7 8 9 10 11 12 13 14 15 16 17 18 19 20 21 22 23 24 25 26 27 28 29 30 31 32 33 34 35 36 37 38 39 40 41 42 43 44 45 46 47 48 49 50
000
ASUS41 KLWX 071310
RWRLWX

REGIONAL WEATHER ROUNDUP
NATIONAL WEATHER SERVICE BALTIMORE MD/WASHINGTON DC
900 AM EDT TUE JUL 07 2015

Note: "FAIR" indicates few or no clouds below 12,000 feet
with no significant weather and/or obstructions to visibility.
 TC=TEMPERATURE CELSIUS

 * =Non NWS site. Station does not report precipitation (e.g. rain,
    snow, etc.), thunder, or fog.

DCZ001-MDZ009-015-VAZ040>042-051-053>054-071400-
WASHINGTON METRO

CITY           SKY/WX    TMP DP  RH WIND       PRES   REMARKS
WASHINGTON NAT MOSUNNY   81  72  74 W5        30.07S
DULLES         MOSUNNY   73  72  94 S3        30.07F
ANDREWS AFB    PTSUNNY   76  76  99 W6        30.07R
FT BELVOIR     PTSUNNY   76  72  87 VRB2      30.07S
QUANTICO       SUNNY     92  70  48 CALM      30.08R HX  97
COLLEGE PARK*  MOSUNNY   77  73  88 CALM      30.06F
LEESBURG*      CLOUDY    73  73 100 S5        30.08S
MANASSAS*      CLOUDY    73  73 100 CALM      30.08S
GAITHERSBURG*  PTSUNNY   73  70  88 W3        30.11F

$$

MDZ006>007-011-014-071400-
BALTIMORE METRO

CITY           SKY/WX    TMP DP  RH WIND       PRES   REMARKS
BWI AIRPORT    PTSUNNY   76  72  87 W3        30.06R
MD SCIENCE CTR   N/A     78  71  79 MISG      30.07S
MARTIN STATE   PTSUNNY   77  73  88 MISG      30.07R
ANNAPOLIS      CLOUDY    76  71  85 W7        30.06R
FORT MEADE*    MOSUNNY   75  73  94 W5        30.09S

$$

MDZ012-015-019>023-071400-
MARYLAND EASTERN SHORE

CITY           SKY/WX    TMP DP  RH WIND       PRES   REMARKS
OCEAN CITY     SUNNY     81  74  79 SW13      30.07R
SALISBURY      SUNNY     80  74  81 SW12      30.07R
CAMBRIDGE*     SUNNY     79  72  78 SW8       30.06R
EASTON*        MOSUNNY   81  77  89 W12       30.10R

$$

MDZ017>025-071400-
SOUTHERN MARYLAND

CITY           SKY/WX    TMP DP  RH WIND       PRES   REMARKS
PATUXENT RIVER MOSUNNY   78  71  79 W12       30.07R
ST INIGOES     NOT AVBL
LEONARDTOWN*   MOSUNNY   77  70  78 SW9       30.09S

$$

MDZ003>005-071400-
NORTH CENTRAL MARYLAND

CITY           SKY/WX    TMP DP  RH WIND       PRES   REMARKS
FREDERICK*     PTSUNNY   75  73  94 S7        30.09S
HAGERSTOWN APT CLOUDY    74  69  85 S6        30.07S
WESTMINSTER*   MOSUNNY   75  72  88 SW6       30.08S

$$

MDZ501>502-071400-
WESTERN MARYLAND

CITY           SKY/WX    TMP DP  RH WIND       PRES   REMARKS
OAKLAND*       PTSUNNY   66 N/A N/A SW7       30.16F HAZE
CUMBERLAND*    CLOUDY    72  72 100 CALM      30.11F

$$

VAZ025>031-071400-
SHENANDOAH VALLEY

CITY           SKY/WX    TMP DP  RH WIND       PRES   REMARKS
WINCHESTER*    SUNNY     77  70  78 SW7       30.08S
FRONT ROYAL*   FAIR      73  68  83 S3        30.08S
LURAY*         FAIR      77  70  78 SW7       30.11S
NEW MARKET*    FAIR      74  67  81 SW5       30.10R
STAUNTON*      SUNNY     76  68  77 SW6       30.15R
WAYNESBORO*    FAIR      73  67  81 SW5       30.14S

$$

WVZ021-048>050-054>055-071400-
EASTERN WEST VIRGINIA PANHANDLE

CITY           SKY/WX    TMP DP  RH WIND       PRES   REMARKS
MARTINSBURG    SUNNY     74  68  81 SW5       30.08R
PETERSBURG*    SUNNY     70  67  91 CALM      30.11S

$$

VAZ036>039-050-071400-
CENTRAL FOOTHILLS

CITY           SKY/WX    TMP DP  RH WIND       PRES   REMARKS
CHARLOTTESVILL SUNNY     76  67  73 SW5       30.10R
CULPEPER*      MOSUNNY   73  71  91 CALM      30.07F
ORANGE*        SUNNY     79  70  73 S6        30.09S
GORDONSVILLE*  FAIR      77  70  78 SW6       30.08S
WARRENTON*     FAIR      77  73  86 CALM      30.07F

$$

VAZ055>057-071400-
NORTH AND CENTRAL PIEDMONT

CITY           SKY/WX    TMP DP  RH WIND       PRES   REMARKS
FREDERICKSBRG* SUNNY     78  74  87 CALM      30.07S
STAFFORD*      SUNNY     75  70  85 CALM      30.11F

$$

NCZ024-NYZ072-PAZ021-071-VAZ022-071-071400-
OTHER REGIONAL OBSERVATIONS

CITY           SKY/WX    TMP DP  RH WIND       PRES   REMARKS
NEW YORK CITY  PTSUNNY   80  71  74 VRB6      30.07S
PHILADELPHIA   MOSUNNY   80  72  76 SW8       30.05S
PITTSBURGH     MOSUNNY   73  67  81 SW8       30.04S
ROANOKE        SUNNY     72  66  81 W6        30.17S
RICHMOND       SUNNY     77  70  79 SW6       30.10R
RALEIGH        MOSUNNY   78  72  81 SW6       30.14R

$$

ANZ530>537-071400-
MARINE OBSERVATIONS

STATION/POSITION TIME  TEMP    WIND        PRES
                       AIR SEA DIR/SP/G
                 (UTC) (F)     (DEG/KT/KT) (MB)
THOMAS PT LIGHT  1200   74     240/  7     1018.4
BALT KEY BRIDGE  1200   74     220/  4/  4 1017.4R
COVE POINT       1200   76     240/  7/ 12 1018.4R
LEWISETTA        1200   77 79  240/  5/  6 1018.0R
SOLOMONS ISLAND  1200      81                N/A
PINEY POINT      1200          260/  5/  8   N/A

$$




USA.gov is the U.S. government's official web portal to all federal, state and local government web resources and services.